This is the latest recevied weather packets stored in our database for station/object 9M4RLD-3. If no packets are shown the sender has not sent any weather packets the latest 10 day(s).
| Time | Temp. | Humidity | Pressure | Rain* | Wind** | Luminosity | Snow |
|---|---|---|---|---|---|---|---|
| 1777858270 | 25° C | 100% | 1034.8 hPa | - | - | - | - |
| 1777857112 | 25° C | 100% | 1034.5 hPa | - | - | - | - |
| 1777857070 | 25° C | 100% | 1034.5 hPa | - | - | - | - |
| 1777855870 | 24.44° C | 100% | 1034.2 hPa | - | - | - | - |
| 1777854670 | 23.89° C | 100% | 1034 hPa | - | - | - | - |
| 1777853470 | 22.78° C | 100% | 1033.8 hPa | - | - | - | - |
| 1777852270 | 22.78° C | 100% | 1033.5 hPa | - | - | - | - |
| 1777851070 | 22.22° C | 100% | 1033.2 hPa | - | - | - | - |
| 1777849870 | 22.22° C | 100% | 1033.1 hPa | - | - | - | - |
| 1777848670 | 22.22° C | 100% | 1033 hPa | - | - | - | - |
| 1777847470 | 22.22° C | 100% | 1032.7 hPa | - | - | - | - |
| 1777846269 | 22.22° C | 100% | 1032.6 hPa | - | - | - | - |
| 1777845070 | 22.22° C | 100% | 1032.3 hPa | - | - | - | - |
| 1777843869 | 22.22° C | 100% | 1032.4 hPa | - | - | - | - |
| 1777842669 | 22.22° C | 100% | 1032.3 hPa | - | - | - | - |
| 1777841469 | 22.22° C | 100% | 1032.4 hPa | - | - | - | - |
| 1777840269 | 22.22° C | 100% | 1032.4 hPa | - | - | - | - |
| 1777839069 | 22.22° C | 100% | 1032.4 hPa | - | - | - | - |
| 1777837869 | 22.22° C | 100% | 1032.4 hPa | - | - | - | - |
| 1777836669 | 22.22° C | 100% | 1032.7 hPa | - | - | - | - |
| 1777835469 | 22.22° C | 100% | 1032.9 hPa | - | - | - | - |
| 1777834269 | 22.22° C | 100% | 1033 hPa | - | - | - | - |
| 1777833069 | 22.22° C | 100% | 1033.1 hPa | - | - | - | - |
| 1777831869 | 22.78° C | 100% | 1033.3 hPa | - | - | - | - |
| 1777830671 | 22.78° C | 100% | 1033.4 hPa | - | - | - | - |
* Rain since midnight (hover to see other rain measurements)
** Current wind speed in m/s (hover to see current wind gust speed)